Regional Weather Roundup
Issued by NWS Green Bay, WI

Home | Current Version | Previous Version | Text Only | Print | Product List | Glossary On
Versions: 1 2 3 4 5 6 7 8 9 10 11 12 13 14 15 16 17 18 19 20 21 22 23 24 25 26 27 28 29 30 31 32 33 34 35 36 37 38 39 40 41 42 43 44 45 46 47 48 49 50
000
ASUS43 KGRB 031111
RWRGRB

NORTH-CENTRAL AND NORTHEAST WISCONSIN REGIONAL WEATHER ROUNDUP
NATIONAL WEATHER SERVICE GREEN BAY WI
600 AM CDT FRI JUL 03 2015

WIZ005-009-010>012-018-019-031200-
NORTH CENTRAL WISCONSIN

CITY           SKY/WX    TMP DP  RH WIND       PRES   REMARKS
IRONWOOD       PTCLDY    61  55  82 SW8       29.91S
MANITOWISH WTR PTCLDY    55  53  94 W3        29.98S
ARBOR VITAE    CLEAR     57  53  87 SW6       29.98S
EAGLE RIVER    CLEAR     52  50  93 SW5       29.98S
LAND O LAKES   PTCLDY    53  52  95 CALM      29.98S
RHINELANDER    CLEAR     55  50  83 SW7       30.00S
PHILLIPS       CLEAR     53  50  89 S5        29.98S
ANTIGO         CLEAR     47  46  98 CALM      30.02R
TOMAHAWK       CLEAR     45  43  94 CALM      30.00S
MERRILL        CLEAR     45  45  98 CALM      30.01S
$$

WIZ013-073-031200-
NORTHEAST WISCONSIN

CITY           SKY/WX    TMP DP  RH WIND       PRES   REMARKS
IRON MOUNTAIN  CLEAR     52  48  86 CALM      29.96S
MARINETTE      CLEAR     55  46  71 W3        29.97F
OCONTO         CLEAR     46  46 100 CALM      29.99S
$$

WIZ017-030-035>037-045-031200-
CENTRAL WISCONSIN

CITY           SKY/WX    TMP DP  RH WIND       PRES   REMARKS
MEDFORD        CLEAR     51  49  91 CALM      30.00S
WAUSAU         CLEAR     51  49  92 VRB3      29.99F
MOSINEE        CLEAR     52  50  93 CALM      30.01F
MARSHFIELD     CLEAR     52  48  86 CALM      30.00F
WISC RAPIDS    CLEAR     48  46  93 CALM      30.01F
STEVENS POINT  CLEAR     45  44  97 CALM      30.01F
WAUPACA        CLEAR     49  48  97 CALM      30.01S
SHAWANO        CLEAR     53  50  91 CALM      30.00S
CLINTONVILLE   CLEAR     48  46  93 CALM      30.00F
$$

WIZ038-039-048-051-031200-
FOX VALLEY

CITY           SKY/WX    TMP DP  RH WIND       PRES   REMARKS
NWS GREEN BAY  CLEAR     52  49  89 W3        30.00S
APPLETON       CLEAR     54  48  82 W7        30.01S
OSHKOSH        PTCLDY    53  46  77 CALM      30.00S
FOND DU LAC    PTCLDY    50  48  93 CALM      30.01S
$$

WIZ022-050-052-031200-
EAST CENTRAL WISCONSIN

CITY           SKY/WX    TMP DP  RH WIND       PRES   REMARKS
STURGEON BAY   CLEAR     54  43  66 W5        30.01S
MANITOWOC      CLEAR     50  48  93 MISG      30.00F
SHEBOYGAN      PTCLDY    50  47  89 CALM      30.00S
$$

LMZ563-521-522-541>543-031200-
LAKESHORE

STATION/POSITION TIME  TEMP    WIND        PRES    VSBY  WAVE
                       AIR SEA DIR/SP/G                  HT/PER
                 (UTC) (F)     (DEG/KT/KT) (MB)    (MI)  (FT/S)
SHEBOYGAN LKSHOR 1100   57      CALM  /  1 1016.1F
KEWAUNEE LKSHORE 1000   51     310/  5/  7 1015.0R
ALGOMA MARINA    1010          280/  2/  5   N/A
NORTHPORT PIER   1000   58     230/  1/  4 1015.2F
N MID LAKE BUOY  1050   53 45  200/  8/  8 1015.0F         0
S GREEN BAY BUOY 1000   65 68  230/ 10/ 12 1016.7
SISTER BAY LKSHO 1014   60        CALM       N/A
CHAMBERS ISLAND  1000   60     220/  3/  5 1015.2S
MENOMINEE LKSHOR 1000   58     250/  7/  8 1016.0S
$$


USA.gov is the U.S. government's official web portal to all federal, state and local government web resources and services.